Flag for U.S.A. Weather past 2 weeks in San Francisco, California, U.S.A.

Now
45 °F

Clear.


Feels Like: 44 °F
Forecast: 43 / 54 °F
Wind: 3 mph from Northwest

Location: San Francisco International Airport

Current Time: Dec 27, 2014 at 12:14:11 AM

Latest Report: Dec 26, 2014 at 11:56 PM


Visibility: 10 mi

Pressure: 30.27 "Hg

Humidity: 68%

Dew point: 35 °F

Location of San FranciscoLocation

Historic Weather in San Francisco — Graph

°F

San Francisco temperature yesterday

Maximum temperature yesterday: 59 °F (at 2:56 PM)
Minimum temperature yesterday: 47 °F (at 9:56 PM)
Average temperature yesterday: 54 °F

Past Weeks' High & Low Weather Summary

 TemperatureHumidityPressure
High66 °F (Dec 23, 1:56 PM)100% (Dec 14, 11:56 PM)30.32 "Hg (Dec 14, 11:56 PM)
Low47 °F (Dec 26, 9:56 PM)42% (Dec 25, 12:56 PM)29.66 "Hg (Dec 11, 11:56 PM)
Average56 °F86%30.09 "Hg
* Reported Dec 11 10:56 PM — Dec 26 10:56 PM, San Francisco, Weather by CustomWeather, © 2014

Note: Actual official high and low records may vary slightly from our data, if they occured in-between our weather recording intervals... More about our weather records

Advertising

San Francisco weather history for previous 24 hours

 ConditionsComfort  
Time TempWeatherWind HumidityBarometerVisibility
10:56 PM
Dec 26
47 °FClear.No wind64%30.26 "Hg10 mi
9:56 PM47 °FClear.No wind64%30.24 "Hg10 mi
8:56 PM50 °FClear.No wind57%30.24 "Hg10 mi
7:56 PM51 °FClear.6 mph61%30.23 "Hg10 mi
6:56 PM55 °FClear.6 mph57%30.21 "Hg10 mi
5:56 PM56 °FClear.13 mph53%30.19 "Hg10 mi
4:56 PM56 °FSunny.9 mph55%30.17 "Hg10 mi
3:56 PM57 °FSunny.3 mph49%30.18 "Hg10 mi
2:56 PM59 °FSunny.No wind48%30.17 "Hg10 mi
1:56 PM58 °FSunny.6 mph43%30.17 "Hg10 mi
12:56 PM56 °FPassing clouds.9 mph44%30.18 "Hg10 mi
11:56 AM56 °FSunny.12 mph46%30.20 "Hg10 mi
10:56 AM55 °FSunny.17 mph44%30.22 "Hg10 mi
9:56 AM54 °FSunny.16 mph49%30.22 "Hg10 mi
8:56 AM53 °FSunny.17 mph52%30.20 "Hg10 mi
7:56 AM53 °FSunny.20 mph51%30.17 "Hg10 mi
6:56 AM53 °FClear.23 mph51%30.15 "Hg10 mi
5:56 AM53 °FClear.21 mph55%30.14 "Hg10 mi
4:56 AM53 °FClear.18 mph51%30.14 "Hg10 mi
3:56 AM54 °FClear.23 mph51%30.13 "Hg10 mi
2:56 AM54 °FClear.23 mph53%30.12 "Hg10 mi
1:56 AM53 °FClear.17 mph59%30.11 "Hg10 mi
12:56 AM53 °FClear.13 mph52%30.11 "Hg10 mi
Weather by CustomWeather, © 2014

See weather overviewHow to use our weather pages